| time (UTC) | temp C | wind direction | speed KPH | gust KPH | rain 1hr cm | rain 24hr cm | rain mn cm | humidity % | barometer mb |
| 20260504070104 | 13 | 320 | 9.7 | 0.0 | 0.00 | 0.00 | 0.00 | 58 | 1014.0 |
| 20260504060211 | 12 | 310 | 8.0 | 0.0 | 0.00 | 0.00 | 0.00 | 62 | 1013.0 |
| 20260504050211 | 11 | 10 | 9.7 | 0.0 | 0.00 | 0.00 | 0.00 | 66 | 1013.0 |
| 20260504043103 | 10 | 0 | 1.6 | 0.0 | 0.00 | 0.00 | 0.00 | 71 | 1013.0 |
| 20260504041854 | 11 | 320 | 3.2 | 0.0 | 0.00 | 0.00 | 0.00 | 62 | |
| 20260504040103 | 11 | 0 | 1.6 | 0.0 | 0.00 | 0.00 | 0.00 | 66 | 1013.0 |
| 20260504033209 | 12 | 0 | 3.2 | 0.0 | 0.00 | 0.00 | 0.00 | 62 | 1013.0 |
| 20260504031851 | 12 | 160 | 8.0 | 0.0 | 0.00 | 0.00 | 0.00 | 58 | |
| 20260504023103 | 12 | 100 | 11.3 | 0.0 | 0.00 | 0.00 | 0.00 | 62 | 1013.0 |
| 20260504021853 | 11 | 60 | 3.2 | 0.0 | 0.00 | 0.00 | 0.00 | 66 | |
| 20260504020212 | 12 | 60 | 4.8 | 0.0 | 0.00 | 0.00 | 0.00 | 62 | 1013.0 |
| 20260504013103 | 12 | 50 | 8.0 | 0.0 | 0.00 | 0.00 | 0.00 | 62 | 1013.0 |
| 20260504011851 | 12 | 40 | 8.0 | 0.0 | 0.00 | 0.00 | 0.00 | 58 | |
| 20260504003103 | 13 | 60 | 11.3 | 0.0 | 0.00 | 0.00 | 0.00 | 54 | 1012.0 |
| 20260504001852 | 13 | 40 | 11.3 | 0.0 | 0.00 | 0.00 | 0.00 | 54 | |
| 20260504000212 | 13 | 40 | 9.7 | 0.0 | 0.00 | 0.00 | 0.00 | 54 | 1013.0 |
| 20260503233102 | 15 | 50 | 11.3 | 0.0 | 0.00 | 0.00 | 0.00 | 51 | 1012.0 |
| 20260503231854 | 15 | 110 | 11.3 | 0.0 | 0.00 | 0.00 | 0.00 | 51 | |
| 20260503230103 | 16 | 110 | 11.3 | 0.0 | 0.00 | 0.00 | 0.00 | 48 | 1012.0 |
| 20260503223103 | 17 | 100 | 9.7 | 0.0 | 0.00 | 0.00 | 0.00 | 45 | 1012.0 |
| 20260503221853 | 17 | 130 | 8.0 | 0.0 | 0.00 | 0.00 | 0.00 | 42 | |
| 20260503220103 | 17 | 140 | 8.0 | 0.0 | 0.00 | 0.00 | 0.00 | 42 | 1012.0 |
| 20260503213102 | 17 | 170 | 14.5 | 0.0 | 0.00 | 0.00 | 0.00 | 42 | 1012.0 |
| 20260503211853 | 17 | 160 | 14.5 | 0.0 | 0.00 | 0.00 | 0.00 | 42 | |
| 20260503210104 | 18 | 160 | 14.5 | 0.0 | 0.00 | 0.00 | 0.00 | 39 | 1012.0 |
| 20260503203103 | 18 | 150 | 12.9 | 0.0 | 0.00 | 0.00 | 0.00 | 39 | 1012.0 |
| 20260503201851 | 18 | 130 | 11.3 | 0.0 | 0.00 | 0.00 | 0.00 | 37 | |
| 20260503193102 | 20 | 120 | 12.9 | 0.0 | 0.00 | 0.00 | 0.00 | 34 | 1012.0 |
| 20260503191850 | 20 | 120 | 14.5 | 0.0 | 0.00 | 0.00 | 0.00 | 34 | |
| 20260503190210 | 20 | 120 | 14.5 | 0.0 | 0.00 | 0.00 | 0.00 | 34 | 1012.0 |
| 20260503183103 | 21 | 120 | 16.1 | 0.0 | 0.00 | 0.00 | 0.00 | 32 | 1012.0 |
| 20260503181853 | 21 | 120 | 14.5 | 0.0 | 0.00 | 0.00 | 0.00 | 32 | |
| 20260503173103 | 23 | 130 | 16.1 | 0.0 | 0.00 | 0.00 | 0.00 | 27 | 1012.0 |
| 20260503171851 | 23 | 120 | 19.3 | 0.0 | 0.00 | 0.00 | 0.00 | 27 | |
| 20260503170210 | 25 | 120 | 16.1 | 0.0 | 0.00 | 0.00 | 0.00 | 23 | 1012.0 |
| 20260503160104 | 26 | 130 | 14.5 | 0.0 | 0.00 | 0.00 | 0.00 | 22 | 1012.0 |
| 20260503150103 | 26 | 130 | 12.9 | 0.0 | 0.00 | 0.00 | 0.00 | 22 | 1012.0 |
| 20260503130210 | 25 | 130 | 12.9 | 0.0 | 0.00 | 0.00 | 0.00 | 22 | 1014.0 |
| 20260503100210 | 22 | 0 | 12.9 | 0.0 | 0.00 | 0.00 | 0.00 | 27 | 1016.0 |